(266746) = 2005 WN10 = 2009 SF52

Discovered at Kitt Peak on 2009-09-17 by Spacewatch.

Orbit

Orbit type: Main Belt

Note: WebGL enabled browser required.

epoch2023-09-13.0
epoch JD2460200.5
perihelion date2021-09-28.00753
perihelion JD2459485.50753
argument of perihelion (°)205.89995
ascending node (°)52.74869
inclination (°)2.22788
eccentricity0.0331590
perihelion distance (AU)2.6158123
Tisserand w.r.t. Jupiter3.4
ΔV w.r.t. Earth (km/sec)10.1
semimajor axis (AU)2.7055250
mean anomaly (°)158.35362
mean daily motion (°/day)0.22147590
aphelion distance (AU)2.795
period (years)4.45
P-vector [x]-0.19708793
P-vector [y]-0.89259713
P-vector [z]-0.40549564
Q-vector [x]0.97989737
Q-vector [y]-0.16629583
Q-vector [z]-0.11021269
absolute magnitude17.14
phase slope0.15
uncertainty0
referenceMPEC 2024-A12
observations used230
oppositions15
arc length (days)9917
first opposition used1996
last opposition used2024
residual rms (arc-secs)0.77
perturbers coarse indicatorM-v
perturbers precise indicator003Ek
first observation date used1996-11-06.0
last observation date used2024-01-01.0
computer nameMPCLINUX
JD of orbit computation2456552.216369
perihelion JD uncertainty (days)6.4022E-04
argument of perihelion uncertainty (°)2.2820E-04
ascending node uncertainty (°)1.7765E-04
inclination uncertainty (°)7.7988E-06
eccentricity uncertainty 6.4680E-08
perihelion distance uncertainty (AU)1.6299E-07
Minimum Orbit Intersection Distances (in AU)
for orbit epoch: 2460200.5, reference: E2024-A12
Mercury2.14966
Venus1.88955
Earth1.60003
Mars1.0319
Jupiter2.19653
Saturn6.26184
Uranus15.733
Neptune27.0712

Observations

247 total observations over interval: 1996 11 06.27787 – 2024 01 01.276041
These data are available for download (format description).

Date (UT) J2000 RA J2000 Dec Magn Location Ref
1996 11 06.27787 02 58 07.67 +16 27 41.3 20.0 V 691 – Steward Observatory, Kitt Peak-Spacewatch MPS 297865
1996 11 06.29981 02 58 06.40 +16 27 37.3 20.8 V 691 – Steward Observatory, Kitt Peak-Spacewatch MPS 297865
1996 11 06.32179 02 58 05.10 +16 27 33.2 21.2 V 691 – Steward Observatory, Kitt Peak-Spacewatch MPS 297865
2003 04 05.34450 13 25 46.41 -06 54 01.3 21.7 V 691 – Steward Observatory, Kitt Peak-Spacewatch MPS 297865
2003 04 05.37194 13 25 44.97 -06 53 54.5 21.3 V 691 – Steward Observatory, Kitt Peak-Spacewatch MPS 297865
2003 04 05.39909 13 25 43.56 -06 53 46.7 21.5 V 691 – Steward Observatory, Kitt Peak-Spacewatch MPS 297865
2003 05 02.14426 13 04 03.32 -05 06 19.0 22.5 V 291 – LPL/Spacewatch II MPS 297865
2003 05 02.16782 13 04 02.41 -05 06 16.0 22.8 V 291 – LPL/Spacewatch II MPS 297865
2003 05 02.19220 13 04 01.35 -05 06 10.8 22.0 V 291 – LPL/Spacewatch II MPS 297865
2005 10 26.33494 03 57 41.00 +20 23 36.6 21.8 V 691 – Steward Observatory, Kitt Peak-Spacewatch MPS 297865
2005 10 26.35214 03 57 40.23 +20 23 34.9 22.0 V 691 – Steward Observatory, Kitt Peak-Spacewatch MPS 297865
2005 10 26.36947 03 57 39.50 +20 23 33.6 21.8 V 691 – Steward Observatory, Kitt Peak-Spacewatch MPS 297865
2005 11 22.09435 03 33 55.88 +19 28 42.6 21.0 V 691 – Steward Observatory, Kitt Peak-Spacewatch MPS 152366
2005 11 22.11167 03 33 54.89 +19 28 40.1 21.0 V 691 – Steward Observatory, Kitt Peak-Spacewatch MPS 152366
2005 11 22.12902 03 33 53.89 +19 28 37.1 20.5 V 691 – Steward Observatory, Kitt Peak-Spacewatch MPS 152366
2005 11 25.31961 03 30 51.58 +19 20 29.5 20.6 V G96 – Mt. Lemmon Survey MPS 152366
2005 11 25.32762 03 30 51.12 +19 20 28.3 20.6 V G96 – Mt. Lemmon Survey MPS 152366
2005 11 25.33536 03 30 50.65 +19 20 27.3 20.5 V G96 – Mt. Lemmon Survey MPS 152366
2006 01 23.10762 03 11 31.56 +18 39 00.9 22.4 V G96 – Mt. Lemmon Survey MPS 297865
2006 01 23.11550 03 11 31.74 +18 39 01.1 21.7 V G96 – Mt. Lemmon Survey MPS 297865
2006 01 23.12339 03 11 31.95 +18 39 01.7 21.3 V G96 – Mt. Lemmon Survey MPS 297865
2006 01 23.13129 03 11 32.13 +18 39 03.3 22.1 V G96 – Mt. Lemmon Survey MPS 297865
2007 02 25.34943 10 25 27.33 +13 32 45.4 20.5 V G96 – Mt. Lemmon Survey MPS 297865
2007 02 25.35743 10 25 26.94 +13 32 47.6 20.9 V G96 – Mt. Lemmon Survey MPS 297865
2007 02 25.36543 10 25 26.47 +13 32 50.1 20.6 V G96 – Mt. Lemmon Survey MPS 297865
2007 02 25.37344 10 25 26.00 +13 32 52.2 20.4 V G96 – Mt. Lemmon Survey MPS 297865
2007 02 25.38817 10 25 25.21 +13 32 56.6 20.6 V G96 – Mt. Lemmon Survey MPS 297865
2007 02 25.39606 10 25 24.78 +13 32 58.9 20.5 V G96 – Mt. Lemmon Survey MPS 297865
2007 02 25.40390 10 25 24.38 +13 33 01.0 20.4 V G96 – Mt. Lemmon Survey MPS 297865
2007 02 25.41174 10 25 23.95 +13 33 03.3 20.5 V G96 – Mt. Lemmon Survey MPS 297865
2007 03 20.13594 10 07 23.62 +14 59 16.0 21.4 V 691 – Steward Observatory, Kitt Peak-Spacewatch MPS 297865
2007 03 20.15202 10 07 23.00 +14 59 18.1 21.1 V 691 – Steward Observatory, Kitt Peak-Spacewatch MPS 297865
2007 03 20.16812 10 07 22.32 +14 59 20.6 21.4 V 691 – Steward Observatory, Kitt Peak-Spacewatch MPS 297865
2009 09 17.24015 01 04 46.56 +04 18 13.1 21.4 V 691 – Steward Observatory, Kitt Peak-Spacewatch MPS 296063
2009 09 17.25775 01 04 45.78 +04 18 08.4 21.7 V 691 – Steward Observatory, Kitt Peak-Spacewatch MPS 296063
2009 09 17.27534 01 04 45.03 +04 18 04.2 21.5 V 691 – Steward Observatory, Kitt Peak-Spacewatch MPS 296063
2009 09 20.30491 01 02 34.54 +04 05 18.5 21.0 V 291 – LPL/Spacewatch II MPS 296063
2009 09 20.31510 01 02 34.10 +04 05 15.9 21.2 V 291 – LPL/Spacewatch II MPS 296063
2009 09 20.32533 01 02 33.63 +04 05 13.2 21.1 V 291 – LPL/Spacewatch II MPS 296063
2009 09 24.27757 00 59 31.94 +03 47 39.8 21.5 V 291 – LPL/Spacewatch II MPS 296063
2009 09 24.29025 00 59 31.34 +03 47 36.2 20.9 V 291 – LPL/Spacewatch II MPS 296063
2009 09 24.30696 00 59 30.53 +03 47 31.8 20.6 V 291 – LPL/Spacewatch II MPS 296063
2009 09 25.22542 00 58 46.81 +03 43 19.3 20.7 V 691 – Steward Observatory, Kitt Peak-Spacewatch MPS 297048
2009 09 25.24313 00 58 45.97 +03 43 15.2 20.8 V 691 – Steward Observatory, Kitt Peak-Spacewatch MPS 297048
2009 09 25.26080 00 58 45.06 +03 43 09.7 21.0 V 691 – Steward Observatory, Kitt Peak-Spacewatch MPS 297048
2009 09 29.21506 00 55 31.22 +03 24 45.3 21.5 V 691 – Steward Observatory, Kitt Peak-Spacewatch MPS 297865
2009 09 29.23297 00 55 30.33 +03 24 40.8 20.6 V 691 – Steward Observatory, Kitt Peak-Spacewatch MPS 297865
2009 09 29.25059 00 55 29.43 +03 24 35.4 20.8 V 691 – Steward Observatory, Kitt Peak-Spacewatch MPS 297865
2009 10 16.21891 00 41 14.89 +02 06 52.8 20.9 V G96 – Mt. Lemmon Survey MPS 299491
2009 10 16.22641 00 41 14.53 +02 06 51.1 21.2 V G96 – Mt. Lemmon Survey MPS 299491
2009 10 16.23376 00 41 14.17 +02 06 49.2 21.0 V G96 – Mt. Lemmon Survey MPS 299491
2009 10 16.24110 00 41 13.81 +02 06 46.9 20.4 V G96 – Mt. Lemmon Survey MPS 299491
2011 01 02.32687 07 32 34.87 +24 34 25.9 20.5 V G96 – Mt. Lemmon Survey MPS 363392
2011 01 02.33727 07 32 34.22 +24 34 26.5 21.0 V G96 – Mt. Lemmon Survey MPS 363392
2011 01 02.34764 07 32 33.64 +24 34 27.9 20.9 V G96 – Mt. Lemmon Survey MPS 363392
2011 01 02.35808 07 32 33.00 +24 34 29.8 20.8 V G96 – Mt. Lemmon Survey MPS 363392
2011 01 30.19419 07 05 50.92 +25 30 29.4 21.1 V G96 – Mt. Lemmon Survey MPS 368593
2011 01 30.20267 07 05 50.49 +25 30 29.7 21.1 V G96 – Mt. Lemmon Survey MPS 368593
2011 01 30.21130 07 05 50.10 +25 30 30.5 21.2 V G96 – Mt. Lemmon Survey MPS 368593
2011 01 30.21995 07 05 49.66 +25 30 31.1 21.3 V G96 – Mt. Lemmon Survey MPS 368593
2012 04 19.26609 14 06 31.82 -11 26 42.8 20.4 V G96 – Mt. Lemmon Survey MPS 421766
2012 04 19.27363 14 06 31.39 -11 26 41.5 20.3 V G96 – Mt. Lemmon Survey MPS 421766
2012 04 19.28113 14 06 30.96 -11 26 39.9 20.4 V G96 – Mt. Lemmon Survey MPS 421766
2012 04 19.28871 14 06 30.56 -11 26 38.0 20.6 V G96 – Mt. Lemmon Survey MPS 421766
2012 05 13.23262 13 46 52.28 -10 02 29.1 20.7 V G96 – Mt. Lemmon Survey MPS 424840
2012 05 13.23940 13 46 52.03 -10 02 28.5 20.6 V G96 – Mt. Lemmon Survey MPS 424840
2012 05 13.24619 13 46 51.70 -10 02 26.5 21.1 V G96 – Mt. Lemmon Survey MPS 424840
2012 05 13.25296 13 46 51.42 -10 02 26.0 20.7 V G96 – Mt. Lemmon Survey MPS 424840
2013 08 29.35966 21 48 36.881 -16 58 52.96 20.8 w F51 – Pan-STARRS 1, Haleakala MPS 474808
2013 08 29.37348 21 48 36.159 -16 58 55.99 20.7 w F51 – Pan-STARRS 1, Haleakala MPS 474808
2013 08 29.38730 21 48 35.452 -16 58 59.07 20.7 w F51 – Pan-STARRS 1, Haleakala MPS 474808
2013 08 29.40111 21 48 34.745 -16 59 02.14 20.7 w F51 – Pan-STARRS 1, Haleakala MPS 474808
2014 11 17.34907 04 28 54.428 +22 27 35.92 21.2 w F51 – Pan-STARRS 1, Haleakala MPS 547306
2014 11 17.36194 04 28 53.695 +22 27 35.12 21.1 w F51 – Pan-STARRS 1, Haleakala MPS 547306
2014 11 17.37482 04 28 52.960 +22 27 34.36 21.1 w F51 – Pan-STARRS 1, Haleakala MPS 547306
2014 11 17.38770 04 28 52.215 +22 27 33.41 21.1 w F51 – Pan-STARRS 1, Haleakala MPS 547306
2014 11 22.39321 04 24 05.08 +22 20 56.6 20.6 V G96 – Mt. Lemmon Survey MPS 549342
2014 11 22.39995 04 24 04.65 +22 20 55.8 20.7 V G96 – Mt. Lemmon Survey MPS 549342
2014 11 22.40669 04 24 04.26 +22 20 55.1 20.8 V G96 – Mt. Lemmon Survey MPS 549342
2014 11 22.41342 04 24 03.85 +22 20 54.2 20.4 V G96 – Mt. Lemmon Survey MPS 549342
2014 11 23.35752 04 23 08.40 +22 19 31.7 20.4 V G96 – Mt. Lemmon Survey MPS 549342
2014 11 23.36295 04 23 08.07 +22 19 31.2 21.1 V G96 – Mt. Lemmon Survey MPS 549342
2014 11 23.36839 04 23 07.72 +22 19 31.0 19.8 V G96 – Mt. Lemmon Survey MPS 549342
2014 11 23.37382 04 23 07.39 +22 19 30.4 20.7 V G96 – Mt. Lemmon Survey MPS 549342
2014 11 27.51713 04 19 00.640 +22 13 02.70 20.7 w F51 – Pan-STARRS 1, Haleakala MPS 551210
2014 11 27.53037 04 18 59.831 +22 13 01.32 20.7 w F51 – Pan-STARRS 1, Haleakala MPS 551210
2014 11 27.54361 04 18 59.026 +22 12 59.89 20.7 w F51 – Pan-STARRS 1, Haleakala MPS 551210
2014 11 28.30732 04 18 13.49 +22 11 43.7 20.2 V G96 – Mt. Lemmon Survey MPS 551210
2014 11 28.31190 04 18 13.22 +22 11 43.2 20.2 V G96 – Mt. Lemmon Survey MPS 551210
2014 11 28.31649 04 18 12.93 +22 11 42.6 20.3 V G96 – Mt. Lemmon Survey MPS 551210
